Location: Burbank
(38.7788°N, 114.0429°W)
Time: 14:09:18
(UTC+00:00)

Vanguard 2 Rocket - Pass Details

Date: 23 May 2026
Orbit: 553 x 3286 km, 32.9° (Epoch: 6 June)

Event Time Altitude Azimuth Distance (km) Brightness Sun altitude
Rises 22:00:50 0° 279° (W) 5,938 11.5 53.5°
Reaches altitude 10° 22:04:38 10° 273° (W) 5,248 11.5 52.8°
Maximum altitude 22:19:30 41° 211° (SSW) 4,070 11.4 50.1°
Drops below altitude 10° 22:37:08 10° 150° (SSE) 6,118 11.1 46.7°
Sets 22:42:06 0° 143° (SE) 6,969 11.2 45.8°
